^^
Datos históricos de la estación: Murcia-Puente Tocinos
Diario Informe para Abril 20, 2017 Unidades:  Métrico    Inglés   Ambas
« Anterior Día
Siguiente Día »
Diario Semanal Mensual Anual Configurable
  Máximo: Mínimo: Media:
Temperatura: 17.8 °C 13.2 °C 15.5 °C
Punto de rocio: 9.1 °C 3.8 °C 6.4 °C
Humedad: 65% 43% 55%
Velocidad viento: 30.9km/h 2.3km/h 15.6km/h
Racha viento: 56.5km/h - -
Viento- - NE
Presión: 1024.3 hPa 1019.2 hPa -
Precipitación: 0.0 mm    
Historical Graphs
 
 
Tabla de datos para Abril 20, 2017
Hora Temperatura Punto de rocio Presión Viento Velocidad viento Racha viento Humedad Intensidad lluvia(por hora) Nubes
00:04 16.1 °C 8.6 °C 1019.5 hPa NNE 13.0 km/h 42.6 km/h 61% 0.0 mm BKN
00:09 16.1 °C 8.6 °C 1019.5 hPa NNE 13.0 km/h 42.6 km/h 61% 0.0 mm BKN
00:14 16.0 °C 8.5 °C 1019.5 hPa NNE 13.0 km/h 42.6 km/h 61% 0.0 mm BKN
00:19 16.1 °C 8.8 °C 1019.5 hPa NE 13.0 km/h 42.6 km/h 62% 0.0 mm BKN
00:24 16.1 °C 8.6 °C 1019.5 hPa NE 13.0 km/h 42.6 km/h 61% 0.0 mm BKN
00:29 16.1 °C 8.6 °C 1019.5 hPa East 13.7 km/h 42.6 km/h 61% 0.0 mm BKN
00:34 16.1 °C 8.6 °C 1019.5 hPa NE 13.7 km/h 42.6 km/h 61% 0.0 mm BKN
00:39 16.1 °C 8.6 °C 1019.5 hPa NE 10.0 km/h 42.6 km/h 61% 0.0 mm BKN
00:44 16.0 °C 8.5 °C 1019.5 hPa ENE 10.0 km/h 42.6 km/h 61% 0.0 mm BKN
00:49 16.0 °C 8.5 °C 1019.5 hPa NE 13.0 km/h 42.6 km/h 61% 0.0 mm BKN
00:54 16.0 °C 8.5 °C 1019.5 hPa NE 13.0 km/h 42.6 km/h 61% 0.0 mm BKN
00:59 16.0 °C 8.5 °C 1019.5 hPa NE 12.2 km/h 42.6 km/h 61% 0.0 mm BKN
01:04 16.0 °C 8.5 °C 1019.5 hPa NE 12.2 km/h 42.6 km/h 61% 0.0 mm BKN
01:14 15.9 °C 8.4 °C 1019.5 hPa NE 14.0 km/h 42.6 km/h 61% 0.0 mm BKN
01:19 15.9 °C 8.4 °C 1019.5 hPa NE 14.8 km/h 42.6 km/h 61% 0.0 mm BKN
01:24 15.9 °C 8.4 °C 1019.5 hPa NNE 14.8 km/h 42.6 km/h 61% 0.0 mm BKN
01:29 15.9 °C 8.4 °C 1019.5 hPa ENE 14.0 km/h 42.6 km/h 61% 0.0 mm BKN
01:34 15.9 °C 8.6 °C 1019.5 hPa NNE 14.0 km/h 42.6 km/h 62% 0.0 mm BKN
01:39 15.9 °C 8.6 °C 1019.5 hPa NE 11.9 km/h 42.6 km/h 62% 0.0 mm BKN
01:44 15.8 °C 8.8 °C 1019.5 hPa NE 11.9 km/h 42.6 km/h 63% 0.0 mm BKN
01:49 15.7 °C 8.9 °C 1019.5 hPa NNE 10.3 km/h 42.6 km/h 64% 0.0 mm BKN
01:54 15.7 °C 9.1 °C 1019.5 hPa NNE 10.3 km/h 42.6 km/h 65% 0.0 mm BKN
01:59 15.6 °C 9.1 °C 1019.5 hPa NE 9.5 km/h 42.6 km/h 65% 0.0 mm BKN
02:04 15.6 °C 9.1 °C 1019.5 hPa ENE 9.5 km/h 42.6 km/h 65% 0.0 mm BKN
02:09 15.6 °C 9.1 °C 1019.9 hPa NNE 13.0 km/h 42.6 km/h 65% 0.0 mm BKN
02:14 15.7 °C 9.1 °C 1019.9 hPa NE 13.0 km/h 42.6 km/h 65% 0.0 mm BKN
02:19 15.6 °C 8.8 °C 1019.9 hPa NNE 15.6 km/h 42.6 km/h 64% 0.0 mm BKN
02:24 15.6 °C 8.8 °C 1019.5 hPa NNE 15.6 km/h 42.6 km/h 64% 0.0 mm BKN
02:34 15.6 °C 8.6 °C 1019.5 hPa NNE 18.3 km/h 42.6 km/h 63% 0.0 mm BKN
02:39 15.5 °C 8.5 °C 1019.9 hPa ENE 16.1 km/h 42.6 km/h 63% 0.0 mm BKN
02:44 15.5 °C 8.5 °C 1019.9 hPa NNE 16.1 km/h 42.6 km/h 63% 0.0 mm BKN
02:49 15.4 °C 8.2 °C 1019.9 hPa NNE 15.6 km/h 42.6 km/h 62% 0.0 mm BKN
02:54 15.4 °C 7.9 °C 1019.5 hPa NNE 15.6 km/h 42.6 km/h 61% 0.0 mm BKN
02:59 15.3 °C 7.8 °C 1019.5 hPa NNE 14.0 km/h 42.6 km/h 61% 0.0 mm BKN
03:04 15.3 °C 7.6 °C 1019.5 hPa NE 14.0 km/h 42.6 km/h 60% 0.0 mm BKN
03:09 15.2 °C 7.0 °C 1019.5 hPa NNE 12.2 km/h 42.6 km/h 58% 0.0 mm BKN
03:14 15.2 °C 7.0 °C 1019.5 hPa NNE 12.2 km/h 42.6 km/h 58% 0.0 mm BKN
03:19 15.1 °C 6.9 °C 1019.5 hPa NNE 13.0 km/h 42.6 km/h 58% 0.0 mm BKN
03:24 15.1 °C 6.6 °C 1019.5 hPa NNE 13.0 km/h 42.6 km/h 57% 0.0 mm BKN
03:29 15.1 °C 6.6 °C 1019.5 hPa NNE 13.0 km/h 42.6 km/h 57% 0.0 mm BKN
03:34 15.1 °C 6.6 °C 1019.5 hPa NNE 12.9 km/h 27.4 km/h 57% 0.0 mm SCT
03:39 15.1 °C 6.4 °C 1019.5 hPa NNE 12.9 km/h 25.7 km/h 56% 0.0 mm SCT
03:44 15.1 °C 6.4 °C 1019.5 hPa NE 13.0 km/h 42.6 km/h 56% 0.0 mm BKN
03:49 15.1 °C 6.4 °C 1019.5 hPa NNW 10.3 km/h 42.6 km/h 56% 0.0 mm SCT
03:54 15.2 °C 6.5 °C 1019.5 hPa NNE 10.3 km/h 42.6 km/h 56% 0.0 mm BKN
03:59 15.1 °C 6.4 °C 1019.5 hPa NE 13.0 km/h 42.6 km/h 56% 0.0 mm BKN
04:04 15.1 °C 6.4 °C 1019.5 hPa NNE 12.9 km/h 22.5 km/h 56% 0.0 mm SCT
04:09 15.1 °C 6.4 °C 1019.5 hPa NE 12.2 km/h 42.6 km/h 56% 0.0 mm SCT
04:14 15.0 °C 6.3 °C 1019.5 hPa North 12.2 km/h 42.6 km/h 56% 0.0 mm BKN
04:19 14.9 °C 5.9 °C 1019.5 hPa NNE 10.0 km/h 42.6 km/h 55% 0.0 mm FEW
04:24 14.9 °C 6.2 °C 1019.5 hPa North 10.0 km/h 42.6 km/h 56% 0.0 mm BKN
04:29 14.8 °C 6.1 °C 1019.5 hPa NNE 9.5 km/h 42.6 km/h 56% 0.0 mm BKN
04:34 14.8 °C 6.1 °C 1019.5 hPa NE 9.5 km/h 42.6 km/h 56% 0.0 mm BKN
04:39 14.7 °C 6.0 °C 1019.5 hPa NE 7.6 km/h 42.6 km/h 56% 0.0 mm FEW
04:44 14.7 °C 6.0 °C 1019.5 hPa NNE 7.6 km/h 42.6 km/h 56% 0.0 mm BKN
04:49 14.6 °C 5.9 °C 1019.5 hPa East 6.9 km/h 42.6 km/h 56% 0.0 mm BKN
04:54 14.4 °C 5.4 °C 1019.2 hPa NE 6.9 km/h 42.6 km/h 55% 0.0 mm BKN
04:59 14.3 °C 5.6 °C 1019.2 hPa NE 6.9 km/h 42.6 km/h 56% 0.0 mm BKN
05:04 14.3 °C 5.6 °C 1019.2 hPa NNE 6.9 km/h 42.6 km/h 56% 0.0 mm FEW
05:09 14.2 °C 5.6 °C 1019.2 hPa NE 6.9 km/h 42.6 km/h 56% 0.0 mm BKN
05:14 14.2 °C 5.6 °C 1019.2 hPa NNE 8.0 km/h 11.3 km/h 56% 0.0 mm FEW
05:19 14.1 °C 5.4 °C 1019.2 hPa NE 8.0 km/h 11.3 km/h 56% 0.0 mm FEW
05:24 14.1 °C 5.4 °C 1019.2 hPa NE 6.9 km/h 42.6 km/h 56% 0.0 mm BKN
05:29 14.1 °C 5.4 °C 1019.2 hPa NE 6.9 km/h 42.6 km/h 56% 0.0 mm FEW
05:34 14.0 °C 5.3 °C 1019.2 hPa North 6.9 km/h 42.6 km/h 56% 0.0 mm BKN
05:39 14.0 °C 5.3 °C 1019.2 hPa NE 6.4 km/h 42.6 km/h 56% 0.0 mm BKN
05:44 13.9 °C 5.3 °C 1019.2 hPa NNE 6.4 km/h 42.6 km/h 56% 0.0 mm BKN
05:49 13.9 °C 5.3 °C 1019.2 hPa NE 4.8 km/h 11.3 km/h 56% 0.0 mm FEW
05:54 13.9 °C 5.3 °C 1019.2 hPa NE 5.8 km/h 42.6 km/h 56% 0.0 mm FEW
05:59 13.8 °C 4.9 °C 1019.2 hPa NE 8.0 km/h 11.3 km/h 55% 0.0 mm BKN
06:04 13.8 °C 5.2 °C 1019.2 hPa NE 6.9 km/h 42.6 km/h 56% 0.0 mm BKN
06:09 13.8 °C 5.2 °C 1019.2 hPa NE 8.0 km/h 11.3 km/h 56% 0.0 mm FEW
06:14 13.8 °C 5.2 °C 1019.2 hPa NE 8.0 km/h 11.3 km/h 56% 0.0 mm FEW
06:19 13.7 °C 5.1 °C 1019.2 hPa NE 8.0 km/h 11.3 km/h 56% 0.0 mm FEW
06:24 13.7 °C 5.1 °C 1019.2 hPa NE 8.0 km/h 11.3 km/h 56% 0.0 mm FEW
06:29 13.7 °C 5.3 °C 1019.2 hPa NNE 6.9 km/h 42.6 km/h 57% 0.0 mm BKN
06:34 13.6 °C 5.2 °C 1019.2 hPa NE 6.9 km/h 42.6 km/h 57% 0.0 mm FEW
06:39 13.6 °C 5.2 °C 1019.2 hPa NNE 5.0 km/h 42.6 km/h 57% 0.0 mm BKN
06:44 13.6 °C 5.2 °C 1019.2 hPa NE 5.0 km/h 42.6 km/h 57% 0.0 mm BKN
06:49 13.5 °C 5.2 °C 1019.2 hPa NNE 4.7 km/h 42.6 km/h 57% 0.0 mm BKN
06:54 13.5 °C 5.2 °C 1019.5 hPa NE 4.7 km/h 42.6 km/h 57% 0.0 mm BKN
06:59 13.5 °C 5.4 °C 1019.5 hPa ENE 4.7 km/h 42.6 km/h 58% 0.0 mm BKN
07:04 13.5 °C 5.4 °C 1019.5 hPa NE 4.7 km/h 42.6 km/h 58% 0.0 mm BKN
07:05 13.5 °C 5.4 °C 1019.5 hPa NE 4.7 km/h 42.6 km/h 58% 0.0 mm BKN
07:10 13.5 °C 5.4 °C 1019.5 hPa East 3.9 km/h 42.6 km/h 58% 0.0 mm BKN
07:15 13.5 °C 5.4 °C 1019.5 hPa ESE 3.9 km/h 42.6 km/h 58% 0.0 mm SCT
07:20 13.5 °C 5.4 °C 1019.9 hPa ESE 3.2 km/h 42.6 km/h 58% 0.0 mm SCT
07:25 13.5 °C 5.6 °C 1019.9 hPa East 3.2 km/h 42.6 km/h 59% 0.0 mm SCT
07:30 13.4 °C 5.3 °C 1019.9 hPa ESE 3.2 km/h 42.6 km/h 58% 0.0 mm SCT
07:35 13.4 °C 5.6 °C 1019.9 hPa NE 3.2 km/h 42.6 km/h 59% 0.0 mm SCT
07:40 13.4 °C 5.6 °C 1019.9 hPa NE 2.9 km/h 42.6 km/h 59% 0.0 mm SCT
07:45 13.3 °C 5.4 °C 1019.9 hPa NE 2.9 km/h 42.6 km/h 59% 0.0 mm SCT
07:50 13.4 °C 5.6 °C 1020.2 hPa NE 2.3 km/h 42.6 km/h 59% 0.0 mm SCT
07:55 13.4 °C 5.6 °C 1020.2 hPa NNW 2.3 km/h 42.6 km/h 59% 0.0 mm SCT
08:00 13.4 °C 5.3 °C 1020.2 hPa NNE 2.9 km/h 42.6 km/h 58% 0.0 mm SCT
08:05 13.4 °C 5.3 °C 1020.5 hPa NE 2.9 km/h 42.6 km/h 58% 0.0 mm SCT
08:10 13.5 °C 5.4 °C 1020.5 hPa NE 3.2 km/h 42.6 km/h 58% 0.0 mm SCT
08:15 13.6 °C 5.5 °C 1020.5 hPa NE 3.2 km/h 42.6 km/h 58% 0.0 mm
08:20 13.6 °C 5.2 °C 1020.2 hPa NE 3.2 km/h 42.6 km/h 57% 0.0 mm
08:25 13.7 °C 5.3 °C 1020.2 hPa NNW 3.2 km/h 42.6 km/h 57% 0.0 mm
08:30 13.8 °C 5.2 °C 1020.2 hPa NNE 3.9 km/h 42.6 km/h 56% 0.0 mm
08:35 13.8 °C 5.2 °C 1020.5 hPa North 3.9 km/h 42.6 km/h 56% 0.0 mm
08:40 13.9 °C 5.0 °C 1020.5 hPa North 5.0 km/h 42.6 km/h 55% 0.0 mm
08:45 14.0 °C 4.8 °C 1020.5 hPa NE 5.0 km/h 42.6 km/h 54% 0.0 mm
08:51 14.1 °C 5.2 °C 1020.9 hPa NNE 5.8 km/h 42.6 km/h 55% 0.0 mm
08:56 14.3 °C 5.4 °C 1020.9 hPa NNE 5.8 km/h 42.6 km/h 55% 0.0 mm
09:01 14.3 °C 5.4 °C 1020.9 hPa NNE 5.0 km/h 42.6 km/h 55% 0.0 mm
09:05 14.4 °C 5.2 °C 1020.9 hPa NW 5.0 km/h 42.6 km/h 54% 0.0 mm
09:11 14.6 °C 5.7 °C 1020.9 hPa ENE 5.8 km/h 42.6 km/h 55% 0.0 mm
09:16 14.7 °C 5.7 °C 1020.9 hPa West 5.8 km/h 42.6 km/h 55% 0.0 mm
09:21 14.8 °C 5.6 °C 1020.9 hPa North 8.4 km/h 42.6 km/h 54% 0.0 mm
09:31 15.1 °C 5.6 °C 1020.9 hPa NNE 10.3 km/h 42.6 km/h 53% 0.0 mm
09:36 15.3 °C 5.8 °C 1021.2 hPa NNE 10.3 km/h 42.6 km/h 53% 0.0 mm
09:41 15.4 °C 5.6 °C 1021.2 hPa NNE 13.0 km/h 42.6 km/h 52% 0.0 mm
09:46 15.7 °C 5.6 °C 1021.2 hPa NE 13.0 km/h 42.6 km/h 51% 0.0 mm
09:51 15.9 °C 5.8 °C 1020.9 hPa North 14.0 km/h 42.6 km/h 51% 0.0 mm
09:56 16.2 °C 5.4 °C 1020.9 hPa NE 14.0 km/h 42.6 km/h 49% 0.0 mm
10:01 16.3 °C 5.3 °C 1020.9 hPa NE 16.1 km/h 42.6 km/h 48% 0.0 mm
10:06 16.3 °C 4.9 °C 1020.9 hPa NNE 16.1 km/h 42.6 km/h 47% 0.0 mm
10:11 16.5 °C 4.8 °C 1020.9 hPa NE 20.1 km/h 42.6 km/h 46% 0.0 mm
10:16 16.4 °C 4.1 °C 1020.9 hPa NE 20.1 km/h 42.6 km/h 44% 0.0 mm FEW
10:21 16.6 °C 3.9 °C 1020.9 hPa NNE 21.7 km/h 42.6 km/h 43% 0.0 mm FEW
10:26 16.4 °C 3.8 °C 1020.9 hPa NNE 21.7 km/h 46.3 km/h 43% 0.0 mm FEW
10:31 16.3 °C 4.3 °C 1020.9 hPa NE 23.7 km/h 48.1 km/h 45% 0.0 mm FEW
10:36 16.3 °C 4.3 °C 1020.9 hPa NE 23.7 km/h 48.1 km/h 45% 0.0 mm FEW
10:41 16.4 °C 4.1 °C 1020.9 hPa NE 25.6 km/h 48.1 km/h 44% 0.0 mm FEW
10:46 16.6 °C 4.3 °C 1020.9 hPa NNE 25.6 km/h 48.1 km/h 44% 0.0 mm FEW
10:51 16.7 °C 4.7 °C 1021.2 hPa NE 25.1 km/h 48.1 km/h 45% 0.0 mm FEW
10:56 16.6 °C 4.9 °C 1021.2 hPa North 25.1 km/h 48.1 km/h 46% 0.0 mm FEW
11:02 16.6 °C 4.6 °C 1021.2 hPa North 23.7 km/h 48.1 km/h 45% 0.0 mm FEW
11:04 16.6 °C 4.6 °C 1021.2 hPa NNE 23.7 km/h 48.1 km/h 45% 0.0 mm FEW
11:09 16.6 °C 5.2 °C 1021.2 hPa NE 27.4 km/h 48.1 km/h 47% 0.0 mm FEW
11:14 16.7 °C 5.0 °C 1021.2 hPa NNE 27.4 km/h 48.1 km/h 46% 0.0 mm FEW
11:19 16.8 °C 5.4 °C 1021.2 hPa ESE 22.5 km/h 48.1 km/h 47% 0.0 mm FEW
11:24 16.8 °C 5.1 °C 1021.2 hPa NNE 22.5 km/h 48.1 km/h 46% 0.0 mm FEW
11:29 17.0 °C 4.9 °C 1021.2 hPa NE 21.7 km/h 48.1 km/h 45% 0.0 mm FEW
11:34 16.9 °C 5.2 °C 1021.2 hPa NNE 21.7 km/h 48.1 km/h 46% 0.0 mm FEW
11:39 17.0 °C 5.3 °C 1021.2 hPa East 25.1 km/h 48.1 km/h 46% 0.0 mm FEW
11:44 16.9 °C 4.9 °C 1021.2 hPa NE 25.1 km/h 48.1 km/h 45% 0.0 mm FEW
11:49 17.2 °C 5.4 °C 1021.2 hPa NNE 26.2 km/h 48.1 km/h 46% 0.0 mm FEW
11:54 16.9 °C 5.2 °C 1021.6 hPa NNE 26.2 km/h 48.1 km/h 46% 0.0 mm FEW
11:59 17.2 °C 5.2 °C 1021.6 hPa NNE 26.2 km/h 48.1 km/h 45% 0.0 mm FEW
12:04 17.1 °C 5.1 °C 1021.6 hPa NE 26.2 km/h 48.1 km/h 45% 0.0 mm FEW
12:09 16.9 °C 5.2 °C 1021.6 hPa NNE 26.2 km/h 48.1 km/h 46% 0.0 mm FEW
12:14 17.1 °C 5.4 °C 1021.6 hPa NE 26.2 km/h 48.1 km/h 46% 0.0 mm FEW
12:19 17.1 °C 5.4 °C 1021.6 hPa NE 27.4 km/h 48.1 km/h 46% 0.0 mm FEW
12:24 17.0 °C 5.6 °C 1021.6 hPa NNE 27.4 km/h 48.1 km/h 47% 0.0 mm FEW
12:29 17.1 °C 5.4 °C 1021.6 hPa NE 27.4 km/h 48.3 km/h 46% 0.0 mm FEW
12:39 17.4 °C 5.3 °C 1021.6 hPa NE 25.7 km/h 41.8 km/h 45% 0.0 mm FEW
12:44 17.6 °C 5.8 °C 1021.6 hPa NE 25.7 km/h 40.2 km/h 46% 0.0 mm FEW
12:54 17.6 °C 5.8 °C 1021.6 hPa ENE 24.5 km/h 48.1 km/h 46% 0.0 mm FEW
12:59 17.5 °C 6.1 °C 1021.6 hPa NNE 24.5 km/h 48.1 km/h 47% 0.0 mm FEW
13:04 17.5 °C 6.1 °C 1021.6 hPa NNE 24.5 km/h 48.1 km/h 47% 0.0 mm FEW
13:09 17.8 °C 6.0 °C 1021.6 hPa NE 25.1 km/h 48.1 km/h 46% 0.0 mm FEW
13:14 17.3 °C 6.2 °C 1021.6 hPa North 25.1 km/h 53.7 km/h 48% 0.0 mm FEW
13:24 17.2 °C 6.7 °C 1021.6 hPa NNE 27.4 km/h 53.7 km/h 50% 0.0 mm FEW
13:29 17.0 °C 6.5 °C 1021.6 hPa ENE 27.4 km/h 53.7 km/h 50% 0.0 mm FEW
13:34 16.9 °C 6.7 °C 1021.6 hPa NE 27.4 km/h 46.7 km/h 51% 0.0 mm FEW
13:39 16.9 °C 6.4 °C 1021.6 hPa NE 27.4 km/h 48.3 km/h 50% 0.0 mm FEW
13:44 17.2 °C 6.9 °C 1021.6 hPa NNE 28.2 km/h 53.7 km/h 51% 0.0 mm FEW
13:49 17.6 °C 7.1 °C 1021.6 hPa NNE 24.5 km/h 53.7 km/h 50% 0.0 mm FEW
13:54 17.1 °C 6.9 °C 1021.6 hPa NE 24.5 km/h 55.5 km/h 51% 0.0 mm FEW
13:59 17.1 °C 6.9 °C 1021.6 hPa East 27.0 km/h 55.5 km/h 51% 0.0 mm FEW
14:04 17.2 °C 7.3 °C 1021.6 hPa NNE 27.0 km/h 55.5 km/h 52% 0.0 mm FEW
14:09 17.5 °C 7.6 °C 1021.6 hPa NNE 25.1 km/h 55.5 km/h 52% 0.0 mm FEW
14:14 17.6 °C 7.1 °C 1021.6 hPa ENE 25.1 km/h 55.5 km/h 50% 0.0 mm FEW
14:19 17.3 °C 6.8 °C 1021.6 hPa NE 24.1 km/h 51.5 km/h 50% 0.0 mm FEW
14:24 17.4 °C 7.2 °C 1021.6 hPa NE 24.1 km/h 41.8 km/h 51% 0.0 mm FEW
14:29 17.3 °C 7.1 °C 1021.6 hPa NE 25.6 km/h 55.5 km/h 51% 0.0 mm FEW
14:34 17.1 °C 6.9 °C 1021.6 hPa NE 25.6 km/h 55.5 km/h 51% 0.0 mm FEW
14:39 16.9 °C 7.0 °C 1021.6 hPa NE 25.6 km/h 55.5 km/h 52% 0.0 mm FEW
14:44 16.8 °C 6.9 °C 1021.6 hPa NE 25.7 km/h 45.1 km/h 52% 0.0 mm FEW
14:49 16.7 °C 6.8 °C 1021.6 hPa NE 29.0 km/h 41.8 km/h 52% 0.0 mm SCT
14:54 16.8 °C 6.6 °C 1021.6 hPa NE 29.0 km/h 41.8 km/h 51% 0.0 mm SCT
14:59 16.9 °C 6.7 °C 1021.6 hPa ENE 27.0 km/h 55.5 km/h 51% 0.0 mm FEW
15:04 17.1 °C 6.9 °C 1021.6 hPa NNE 27.0 km/h 55.5 km/h 51% 0.0 mm FEW
15:09 17.2 °C 6.7 °C 1021.6 hPa ENE 25.6 km/h 55.5 km/h 50% 0.0 mm FEW
15:14 17.4 °C 6.6 °C 1021.6 hPa NE 25.7 km/h 38.6 km/h 49% 0.0 mm SCT
15:19 17.4 °C 6.3 °C 1021.6 hPa ENE 25.1 km/h 55.5 km/h 48% 0.0 mm FEW
15:24 17.1 °C 6.3 °C 1021.9 hPa NNE 25.1 km/h 56.5 km/h 49% 0.0 mm FEW
15:29 16.9 °C 6.4 °C 1021.9 hPa NE 30.9 km/h 56.5 km/h 50% 0.0 mm FEW
15:34 17.0 °C 5.6 °C 1021.9 hPa NE 30.9 km/h 56.5 km/h 47% 0.0 mm FEW
15:39 17.0 °C 6.5 °C 1021.6 hPa NE 24.5 km/h 56.5 km/h 50% 0.0 mm FEW
15:44 16.7 °C 7.1 °C 1021.6 hPa NE 24.1 km/h 43.4 km/h 53% 0.0 mm FEW
15:49 16.5 °C 7.2 °C 1021.6 hPa NE 25.6 km/h 56.5 km/h 54% 0.0 mm FEW
15:54 16.4 °C 7.3 °C 1021.9 hPa NE 25.6 km/h 56.5 km/h 55% 0.0 mm SCT
15:59 16.4 °C 7.1 °C 1021.9 hPa NNE 22.5 km/h 56.5 km/h 54% 0.0 mm FEW
16:04 16.8 °C 6.6 °C 1021.9 hPa ENE 22.5 km/h 56.5 km/h 51% 0.0 mm FEW
16:09 16.8 °C 6.6 °C 1021.6 hPa NNE 23.3 km/h 56.5 km/h 51% 0.0 mm SCT
16:14 16.8 °C 6.3 °C 1021.6 hPa NE 24.1 km/h 40.2 km/h 50% 0.0 mm SCT
16:19 17.1 °C 5.7 °C 1021.6 hPa NE 24.1 km/h 38.6 km/h 47% 0.0 mm SCT
16:24 17.3 °C 5.2 °C 1021.6 hPa NE 24.1 km/h 35.4 km/h 45% 0.0 mm SCT
16:29 17.5 °C 5.1 °C 1021.6 hPa East 20.9 km/h 56.5 km/h 44% 0.0 mm FEW
16:34 17.4 °C 5.0 °C 1021.6 hPa NNE 20.9 km/h 56.5 km/h 44% 0.0 mm FEW
16:39 17.6 °C 5.8 °C 1021.6 hPa NW 20.9 km/h 56.5 km/h 46% 0.0 mm FEW
16:44 17.3 °C 6.4 °C 1021.6 hPa NE 20.9 km/h 41.8 km/h 49% 0.0 mm SCT
16:49 16.7 °C 7.1 °C 1021.6 hPa East 20.9 km/h 56.5 km/h 53% 0.0 mm FEW
16:54 16.6 °C 7.0 °C 1021.6 hPa NE 20.9 km/h 38.6 km/h 53% 0.0 mm SCT
16:59 16.8 °C 7.4 °C 1021.6 hPa North 22.0 km/h 56.5 km/h 54% 0.0 mm FEW
17:04 16.9 °C 7.5 °C 1021.6 hPa NE 22.0 km/h 56.5 km/h 54% 0.0 mm FEW
17:09 16.9 °C 7.0 °C 1021.6 hPa NE 21.7 km/h 56.5 km/h 52% 0.0 mm FEW
17:14 16.6 °C 7.3 °C 1021.6 hPa NE 22.5 km/h 41.8 km/h 54% 0.0 mm SCT
17:19 16.6 °C 7.2 °C 1021.6 hPa NE 22.5 km/h 38.6 km/h 54% 0.0 mm SCT
17:24 16.4 °C 7.1 °C 1021.6 hPa NE 22.5 km/h 35.4 km/h 54% 0.0 mm SCT
17:29 16.6 °C 7.2 °C 1021.6 hPa NE 20.9 km/h 38.6 km/h 54% 0.0 mm SCT
17:34 16.7 °C 7.3 °C 1021.6 hPa ESE 20.9 km/h 56.5 km/h 54% 0.0 mm FEW
17:39 16.8 °C 6.9 °C 1021.6 hPa ENE 19.8 km/h 56.5 km/h 52% 0.0 mm FEW
17:44 16.9 °C 7.0 °C 1021.6 hPa NE 19.8 km/h 56.5 km/h 52% 0.0 mm FEW
17:49 17.0 °C 7.1 °C 1021.6 hPa NE 18.0 km/h 56.5 km/h 52% 0.0 mm FEW
17:54 16.6 °C 6.7 °C 1021.9 hPa NNE 18.0 km/h 56.5 km/h 52% 0.0 mm FEW
17:59 16.4 °C 7.1 °C 1021.9 hPa NE 23.7 km/h 56.5 km/h 54% 0.0 mm FEW
18:04 16.4 °C 7.1 °C 1021.9 hPa ENE 23.7 km/h 56.5 km/h 54% 0.0 mm FEW
18:09 16.6 °C 7.0 °C 1021.9 hPa NE 19.8 km/h 56.5 km/h 53% 0.0 mm FEW
18:15 16.6 °C 7.0 °C 1021.9 hPa NNE 19.8 km/h 56.5 km/h 53% 0.0 mm FEW
18:19 16.4 °C 7.1 °C 1021.9 hPa NE 19.8 km/h 56.5 km/h 54% 0.0 mm FEW
18:25 16.3 °C 6.9 °C 1021.9 hPa NNE 19.8 km/h 56.5 km/h 54% 0.0 mm FEW
18:30 16.3 °C 6.7 °C 1021.9 hPa NE 18.3 km/h 56.5 km/h 53% 0.0 mm FEW
18:35 16.3 °C 6.7 °C 1021.9 hPa ENE 18.3 km/h 56.5 km/h 53% 0.0 mm FEW
18:40 16.4 °C 6.8 °C 1021.9 hPa NE 16.1 km/h 56.5 km/h 53% 0.0 mm FEW
18:45 16.4 °C 6.5 °C 1021.9 hPa NE 16.1 km/h 56.5 km/h 52% 0.0 mm FEW
18:50 16.4 °C 6.2 °C 1021.9 hPa North 16.1 km/h 56.5 km/h 51% 0.0 mm FEW
18:55 16.4 °C 6.2 °C 1021.6 hPa NNE 16.1 km/h 56.5 km/h 51% 0.0 mm FEW
19:00 16.4 °C 6.5 °C 1021.6 hPa East 19.8 km/h 56.5 km/h 52% 0.0 mm FEW
19:05 16.2 °C 6.6 °C 1021.6 hPa NNE 19.8 km/h 56.5 km/h 53% 0.0 mm FEW
19:10 16.2 °C 7.2 °C 1021.6 hPa NE 17.2 km/h 56.5 km/h 55% 0.0 mm FEW
19:15 15.9 °C 6.9 °C 1021.6 hPa NNE 17.2 km/h 56.5 km/h 55% 0.0 mm FEW
19:20 15.7 °C 6.7 °C 1021.6 hPa NE 19.0 km/h 56.5 km/h 55% 0.0 mm FEW
19:25 15.7 °C 6.7 °C 1021.6 hPa ENE 19.0 km/h 56.5 km/h 55% 0.0 mm FEW
19:30 15.7 °C 6.4 °C 1021.6 hPa NE 20.9 km/h 56.5 km/h 54% 0.0 mm FEW
19:35 15.8 °C 6.8 °C 1021.6 hPa ENE 20.9 km/h 56.5 km/h 55% 0.0 mm FEW
19:40 15.8 °C 6.5 °C 1021.6 hPa NE 20.9 km/h 56.5 km/h 54% 0.0 mm FEW
19:45 15.8 °C 6.5 °C 1021.6 hPa NE 20.9 km/h 56.5 km/h 54% 0.0 mm FEW
19:50 15.7 °C 6.4 °C 1021.6 hPa NE 16.4 km/h 56.5 km/h 54% 0.0 mm FEW
19:55 15.6 °C 6.3 °C 1021.6 hPa NE 16.4 km/h 56.5 km/h 54% 0.0 mm FEW
20:00 15.5 °C 6.8 °C 1021.6 hPa ENE 18.3 km/h 56.5 km/h 56% 0.0 mm FEW
20:05 15.3 °C 6.6 °C 1021.6 hPa NE 18.3 km/h 56.5 km/h 56% 0.0 mm FEW
20:10 15.2 °C 6.5 °C 1021.6 hPa NE 18.3 km/h 56.5 km/h 56% 0.0 mm FEW
20:15 15.1 °C 6.9 °C 1021.6 hPa NE 18.3 km/h 56.5 km/h 58% 0.0 mm
20:20 15.1 °C 6.9 °C 1021.6 hPa NNE 19.8 km/h 56.5 km/h 58% 0.0 mm
20:25 15.0 °C 7.1 °C 1021.6 hPa NE 19.8 km/h 56.5 km/h 59% 0.0 mm
20:30 15.0 °C 7.3 °C 1021.6 hPa NE 18.3 km/h 56.5 km/h 60% 0.0 mm
20:35 14.9 °C 7.2 °C 1021.9 hPa NNE 18.3 km/h 56.5 km/h 60% 0.0 mm
20:40 14.9 °C 7.2 °C 1021.9 hPa NE 14.8 km/h 56.5 km/h 60% 0.0 mm
20:46 14.8 °C 7.3 °C 1021.9 hPa NE 14.8 km/h 56.5 km/h 61% 0.0 mm
20:51 14.7 °C 7.0 °C 1021.9 hPa NNE 17.2 km/h 56.5 km/h 60% 0.0 mm
20:56 14.7 °C 7.0 °C 1021.9 hPa NE 17.2 km/h 56.5 km/h 60% 0.0 mm
21:01 14.7 °C 7.0 °C 1021.9 hPa NNE 17.2 km/h 56.5 km/h 60% 0.0 mm CLR
21:06 14.6 °C 7.2 °C 1021.9 hPa NE 17.2 km/h 56.5 km/h 61% 0.0 mm CLR
21:11 14.4 °C 6.9 °C 1021.9 hPa NE 14.8 km/h 56.5 km/h 61% 0.0 mm CLR
21:16 14.4 °C 7.2 °C 1021.9 hPa NE 14.8 km/h 56.5 km/h 62% 0.0 mm FEW
21:21 14.4 °C 7.2 °C 1022.2 hPa NE 12.2 km/h 56.5 km/h 62% 0.0 mm FEW
21:26 14.3 °C 7.3 °C 1022.2 hPa NE 12.2 km/h 56.5 km/h 63% 0.0 mm FEW
21:32 14.2 °C 7.3 °C 1022.2 hPa NNE 12.2 km/h 56.5 km/h 63% 0.0 mm FEW
21:37 14.2 °C 7.5 °C 1022.2 hPa NE 13.0 km/h 56.5 km/h 64% 0.0 mm FEW
21:42 14.2 °C 7.5 °C 1022.2 hPa NE 13.0 km/h 56.5 km/h 64% 0.0 mm FEW
21:47 14.2 °C 7.3 °C 1022.2 hPa NE 13.7 km/h 56.5 km/h 63% 0.0 mm FEW
21:52 14.2 °C 7.3 °C 1022.6 hPa NNE 13.7 km/h 56.5 km/h 63% 0.0 mm FEW
21:57 14.1 °C 7.2 °C 1022.6 hPa NNE 11.9 km/h 56.5 km/h 63% 0.0 mm FEW
22:03 14.1 °C 7.2 °C 1022.6 hPa NE 11.9 km/h 56.5 km/h 63% 0.0 mm FEW
22:08 14.0 °C 7.3 °C 1022.9 hPa NE 10.3 km/h 56.5 km/h 64% 0.0 mm FEW
22:13 13.9 °C 7.2 °C 1022.9 hPa NE 10.3 km/h 56.5 km/h 64% 0.0 mm FEW
22:18 13.8 °C 7.1 °C 1022.9 hPa North 10.3 km/h 56.5 km/h 64% 0.0 mm BKN
22:23 13.8 °C 7.1 °C 1023.2 hPa NE 10.3 km/h 56.5 km/h 64% 0.0 mm BKN
22:28 13.8 °C 7.1 °C 1023.2 hPa ESE 10.3 km/h 56.5 km/h 64% 0.0 mm BKN
22:34 13.8 °C 6.9 °C 1023.2 hPa ENE 10.3 km/h 56.5 km/h 63% 0.0 mm BKN
22:39 13.7 °C 6.8 °C 1023.2 hPa NNE 10.0 km/h 56.5 km/h 63% 0.0 mm BKN
22:44 13.7 °C 6.8 °C 1023.2 hPa NE 10.0 km/h 56.5 km/h 63% 0.0 mm BKN
22:49 13.7 °C 6.8 °C 1023.2 hPa North 11.1 km/h 56.5 km/h 63% 0.0 mm BKN
22:54 13.6 °C 6.9 °C 1023.6 hPa North 11.1 km/h 56.5 km/h 64% 0.0 mm BKN
22:59 13.6 °C 6.9 °C 1023.6 hPa NNW 10.3 km/h 56.5 km/h 64% 0.0 mm BKN
23:04 13.5 °C 6.8 °C 1023.6 hPa NE 10.3 km/h 56.5 km/h 64% 0.0 mm BKN
23:09 13.5 °C 6.8 °C 1023.9 hPa NE 9.7 km/h 14.5 km/h 64% 0.0 mm FEW
23:14 13.5 °C 6.6 °C 1023.9 hPa NE 10.0 km/h 56.5 km/h 63% 0.0 mm BKN
23:19 13.4 °C 6.7 °C 1023.9 hPa NNE 10.3 km/h 56.5 km/h 64% 0.0 mm SCT
23:24 13.4 °C 6.5 °C 1023.9 hPa NNE 10.3 km/h 56.5 km/h 63% 0.0 mm FEW
23:29 13.3 °C 6.4 °C 1023.9 hPa NE 9.5 km/h 56.5 km/h 63% 0.0 mm FEW
23:34 13.4 °C 6.3 °C 1023.9 hPa NE 9.5 km/h 56.5 km/h 62% 0.0 mm SCT
23:39 13.4 °C 6.3 °C 1024.3 hPa NE 13.0 km/h 56.5 km/h 62% 0.0 mm FEW
23:44 13.3 °C 6.2 °C 1024.3 hPa NE 13.0 km/h 56.5 km/h 62% 0.0 mm FEW
23:49 13.3 °C 6.2 °C 1024.3 hPa NE 10.3 km/h 56.5 km/h 62% 0.0 mm FEW
23:54 13.2 °C 6.1 °C 1024.3 hPa NE 10.3 km/h 56.5 km/h 62% 0.0 mm FEW
23:59 13.2 °C 6.1 °C 1024.3 hPa NE 10.0 km/h 56.5 km/h 62% 0.0 mm SCT
Murcia-Puente Tocinos, España
Compliments of Weather Underground - 2.75 mb

La estación de MeteoMurcia.com, publica sus datos en los siguientes proyectos:

Meteoclimatic www.awekas.at

W3Counter
Web Analytics